User: anonymous   Login
Location: Brabourne
(51.1333°N, 1.0000°E)
Time: 09:18:28
(UTC+00:00)
Language:

Cosmos 1763 Rocket - Orbit

View from above orbital plane
View from above orbital plane
View from above satellite
View from above satellite

Ground track
Ground track

The orbit data is extracted from the following two-line orbital elements,

1 16864U 86052B   21263.88826702  .00000038  00000-0  20022-4 0  9992
2 16864  74.0271  93.5843 0032891 170.1634 190.0172 14.40643678846826
Epoch (UTC): 20 September 2021 21:19:06
Eccentricity: 0.0032891
inclination: 74.0271°
perigee height: 733 km
apogee height: 780 km
right ascension of ascending node: 93.5843°
argument of perigee: 170.1634°
revolutions per day: 14.40643678
mean anomaly at epoch: 190.0172°
orbit number at epoch: 84682

The dashed part of the orbit path shows where the satellite is in the earth's shadow,  

DLR